,,,PA_Meas_PMT16A,,PR_Meas_QMR101_102,,RH_Meas_QMH101,,SR_Meas_QMS101,,TA_Meas_QMH101,,GenWind,,GenWind,
date,time,status,PA,status,PR,status,RH,status,SR,status,TA,status,DirAvg,status,SpdAvg,
2009-11-30, 00:00:05,VALID,1000.45,VALID,0,VALID,91.7004,VALID,0,VALID,24.2885,VALID,144,VALID,0.919922,
2009-11-30, 00:01:05,VALID,1000.43,VALID,0,VALID,91.6623,VALID,0,VALID,24.308,VALID,135,VALID,1.14961,
2009-11-30, 00:02:05,VALID,1000.42,VALID,0,VALID,91.7385,VALID,0,VALID,24.308,VALID,143,VALID,1.08242,
2009-11-30, 00:03:04,VALID,1000.43,VALID,0,VALID,91.7691,VALID,0,VALID,24.2885,VALID,139,VALID,1.05859,
2009-11-30, 00:04:04,VALID,1000.44,VALID,0,VALID,91.647,VALID,0,VALID,24.269,VALID,134,VALID,1.10469,
2009-11-30, 00:05:04,VALID,1000.46,VALID,0,VALID,91.6775,VALID,0,VALID,24.2885,VALID,126,VALID,0.807031,
2009-11-30, 00:06:04,VALID,1000.51,VALID,0,VALID,91.7004,VALID,0,VALID,24.2671,VALID,128,VALID,0.582812,
2009-11-30, 00:07:04,VALID,1000.52,VALID,0,VALID,91.7385,VALID,0,VALID,24.2866,VALID,129,VALID,0.730469,
2009-11-30, 00:08:04,VALID,1000.51,VALID,0,VALID,91.7691,VALID,0,VALID,24.2885,VALID,129,VALID,0.66875,
2009-11-30, 00:09:04,VALID,1000.54,VALID,0,VALID,91.8454,VALID,0,VALID,24.2885,VALID,128,VALID,0.712891,
2009-11-30, 00:10:04,VALID,1000.52,VALID,0,VALID,91.9293,VALID,0,VALID,24.2866,VALID,129,VALID,0.708203,
2009-11-30, 00:11:04,VALID,1000.55,VALID,0,VALID,91.9903,VALID,0,VALID,24.2866,VALID,122,VALID,0.808984,
2009-11-30, 00:12:04,VALID,1000.56,VALID,0,VALID,92.1048,VALID,0,VALID,24.3062,VALID,112,VALID,0.716797,
2009-11-30, 00:13:04,VALID,1000.56,VALID,0,VALID,92.204,VALID,0,VALID,24.3257,VALID,112,VALID,1.07187,
2009-11-30, 00:14:04,VALID,1000.56,VALID,0,VALID,92.2116,VALID,0,VALID,24.3257,VALID,105,VALID,1.05117,
2009-11-30, 00:15:04,VALID,1000.55,VALID,0,VALID,92.1429,VALID,0,VALID,24.347,VALID,100,VALID,1.3125,
2009-11-30, 00:16:04,VALID,1000.57,VALID,0,VALID,92.0361,VALID,0,VALID,24.3062,VALID,94,VALID,1.32031,
2009-11-30, 00:17:04,VALID,1000.57,VALID,0,VALID,92.1429,VALID,0,VALID,24.3647,VALID,87,VALID,1.05469,
2009-11-30, 00:18:04,VALID,1000.56,VALID,0,VALID,91.998,VALID,0,VALID,24.3452,VALID,73,VALID,1.11055,
2009-11-30, 00:19:04,VALID,1000.52,VALID,0,VALID,91.9522,VALID,0,VALID,24.347,VALID,69,VALID,1.31641,
2009-11-30, 00:20:04,VALID,1000.52,VALID,0,VALID,91.8759,VALID,0,VALID,24.3062,VALID,72,VALID,1.42656,
2009-11-30, 00:21:04,VALID,1000.51,VALID,0,VALID,91.9217,VALID,0,VALID,24.308,VALID,71,VALID,1.20352,
2009-11-30, 00:22:04,VALID,1000.55,VALID,0,VALID,92.059,VALID,0,VALID,24.3275,VALID,65,VALID,0.976172,
2009-11-30, 00:23:04,VALID,1000.53,VALID,0,VALID,92.0361,VALID,0,VALID,24.308,VALID,63,VALID,0.93125,
2009-11-30, 00:24:04,VALID,1000.55,VALID,0,VALID,92.0285,VALID,0,VALID,24.308,VALID,68,VALID,1.05039,
2009-11-30, 00:25:04,VALID,1000.56,VALID,0,VALID,91.9751,VALID,0,VALID,24.2671,VALID,69,VALID,0.818359,
2009-11-30, 00:26:04,VALID,1000.54,VALID,0,VALID,91.8148,VALID,0,VALID,24.269,VALID,67,VALID,0.758203,
2009-11-30, 00:27:04,VALID,1000.54,VALID,0,VALID,91.8759,VALID,0,VALID,24.2671,VALID,67,VALID,0.405078,
2009-11-30, 00:28:04,VALID,1000.51,VALID,0,VALID,91.8606,VALID,0,VALID,24.2476,VALID,60,VALID,0.571094,
2009-11-30, 00:29:04,VALID,1000.51,VALID,0,VALID,91.8377,VALID,0,VALID,24.2281,VALID,60,VALID,0.765625,
2009-11-30, 00:30:04,VALID,1000.55,VALID,0,VALID,91.8759,VALID,0,VALID,24.2495,VALID,51,VALID,0.549609,
2009-11-30, 00:31:04,VALID,1000.57,VALID,0,VALID,91.8072,VALID,0,VALID,24.2299,VALID,41,VALID,0.625391,
2009-11-30, 00:32:04,VALID,1000.59,VALID,0,VALID,91.8225,VALID,0,VALID,24.2086,VALID,41,VALID,0.780078,
2009-11-30, 00:33:04,VALID,1000.56,VALID,0,VALID,91.8454,VALID,0,VALID,24.2104,VALID,41,VALID,0.587891,
2009-11-30, 00:34:04,VALID,1000.62,VALID,0,VALID,91.8835,VALID,0,VALID,24.2104,VALID,38,VALID,0.758594,
2009-11-30, 00:35:04,VALID,1000.64,VALID,0,VALID,91.8835,VALID,0,VALID,24.1909,VALID,30,VALID,0.823438,
2009-11-30, 00:36:04,VALID,1000.64,VALID,0,VALID,91.9293,VALID,0,VALID,24.1696,VALID,23,VALID,0.807813,
2009-11-30, 00:37:04,VALID,1000.63,VALID,0,VALID,91.9903,VALID,0,VALID,24.1909,VALID,15,VALID,0.984766,
2009-11-30, 00:38:04,VALID,1000.66,VALID,0,VALID,92.0743,VALID,0,VALID,24.1696,VALID,47,VALID,1.23008,
2009-11-30, 00:39:04,VALID,1000.65,VALID,0,VALID,92.12,VALID,0,VALID,24.15,VALID,53,VALID,1.64922,
2009-11-30, 00:40:04,VALID,1000.69,VALID,0,VALID,92.2116,VALID,0,VALID,24.1909,VALID,51,VALID,1.49063,
2009-11-30, 00:41:04,VALID,1000.72,VALID,0,VALID,92.326,VALID,0,VALID,24.1891,VALID,42,VALID,1.13906,
2009-11-30, 00:42:04,VALID,1000.73,VALID,0,VALID,92.3642,VALID,0,VALID,24.2299,VALID,36,VALID,0.860937,
2009-11-30, 00:43:04,VALID,1000.74,VALID,0,VALID,92.3871,VALID,0,VALID,24.2086,VALID,26,VALID,0.828906,
2009-11-30, 00:44:04,VALID,1000.73,VALID,0,VALID,92.3871,VALID,0,VALID,24.2495,VALID,28,VALID,0.446484,
2009-11-30, 00:45:04,VALID,1000.72,VALID,0,VALID,92.3794,VALID,0,VALID,24.2281,VALID,35,VALID,0.383594,
2009-11-30, 00:46:04,VALID,1000.71,VALID,0,VALID,92.3871,VALID,0,VALID,24.2263,VALID,20,VALID,0.636719,
2009-11-30, 00:47:04,VALID,1000.69,VALID,0,VALID,92.3566,VALID,0,VALID,24.2263,VALID,39,VALID,0.878516,
2009-11-30, 00:48:04,VALID,1000.65,VALID,0,VALID,92.2955,VALID,0,VALID,24.2281,VALID,41,VALID,0.847266,
2009-11-30, 00:49:04,VALID,1000.6,VALID,0,VALID,92.1506,VALID,0,VALID,24.2067,VALID,45,VALID,0.807031,
2009-11-30, 00:50:04,VALID,1000.59,VALID,0,VALID,92.0285,VALID,0,VALID,24.2086,VALID,43,VALID,0.613672,
2009-11-30, 00:51:04,VALID,1000.57,VALID,0,VALID,91.9903,VALID,0,VALID,24.2086,VALID,42,VALID,0.475391,
2009-11-30, 00:52:04,VALID,1000.57,VALID,0,VALID,91.9369,VALID,0,VALID,24.2281,VALID,42,VALID,0,
2009-11-30, 00:53:04,VALID,1000.52,VALID,0,VALID,91.9369,VALID,0,VALID,24.2067,VALID,62,VALID,0,
2009-11-30, 00:54:04,VALID,1000.46,VALID,0,VALID,91.9598,VALID,0,VALID,24.2067,VALID,78,VALID,0,
2009-11-30, 00:55:04,VALID,1000.47,VALID,0,VALID,91.9903,VALID,0,VALID,24.2067,VALID,114,VALID,0,
2009-11-30, 00:56:04,VALID,1000.42,VALID,0,VALID,92.0895,VALID,0,VALID,24.2671,VALID,131,VALID,0,
2009-11-30, 00:57:04,VALID,1000.41,VALID,0,VALID,92.0971,VALID,0,VALID,24.2671,VALID,131,VALID,0,
2009-11-30, 00:58:04,VALID,1000.39,VALID,0,VALID,92.0895,VALID,0,VALID,24.2653,VALID,131,VALID,0,
2009-11-30, 00:59:04,VALID,1000.39,VALID,0,VALID,91.9903,VALID,0,VALID,24.2458,VALID,131,VALID,0,
2009-11-30, 01:00:04,VALID,1000.4,VALID,0,VALID,91.914,VALID,0,VALID,24.2458,VALID,131,VALID,0,
2009-11-30, 01:01:04,VALID,1000.43,VALID,0,VALID,91.8988,VALID,0,VALID,24.2263,VALID,130,VALID,0,
2009-11-30, 01:02:04,VALID,1000.5,VALID,0,VALID,91.9064,VALID,0,VALID,24.2458,VALID,130,VALID,0,
2009-11-30, 01:03:04,VALID,1000.5,VALID,0,VALID,91.9445,VALID,0,VALID,24.2653,VALID,130,VALID,0,
2009-11-30, 01:04:04,VALID,1000.54,VALID,0,VALID,91.9293,VALID,0,VALID,24.2671,VALID,126,VALID,0,
2009-11-30, 01:05:04,VALID,1000.5,VALID,0,VALID,91.8835,VALID,0,VALID,24.2458,VALID,113,VALID,0,
2009-11-30, 01:06:04,VALID,1000.52,VALID,0,VALID,91.8606,VALID,0,VALID,24.2671,VALID,89,VALID,0,
2009-11-30, 01:07:04,VALID,1000.49,VALID,0,VALID,91.8377,VALID,0,VALID,24.2653,VALID,82,VALID,0,
2009-11-30, 01:08:04,VALID,1000.49,VALID,0,VALID,91.8606,VALID,0,VALID,24.2866,VALID,82,VALID,0,
2009-11-30, 01:09:04,VALID,1000.45,VALID,0,VALID,91.8988,VALID,0,VALID,24.2848,VALID,82,VALID,0,
2009-11-30, 01:10:04,VALID,1000.42,VALID,0,VALID,91.8683,VALID,0,VALID,24.2848,VALID,82,VALID,0,
2009-11-30, 01:11:04,VALID,1000.38,VALID,0,VALID,91.8301,VALID,0,VALID,24.3062,VALID,82,VALID,0,
2009-11-30, 01:12:04,VALID,1000.36,VALID,0,VALID,91.7233,VALID,0,VALID,24.2653,VALID,82,VALID,0,
2009-11-30, 01:13:04,VALID,1000.34,VALID,0,VALID,91.7538,VALID,0,VALID,24.3062,VALID,82,VALID,0,
2009-11-30, 01:14:04,VALID,1000.31,VALID,0,VALID,91.7309,VALID,0,VALID,24.3062,VALID,82,VALID,0,
2009-11-30, 01:15:04,VALID,1000.24,VALID,0,VALID,91.7385,VALID,0,VALID,24.2653,VALID,82,VALID,0,
2009-11-30, 01:16:04,VALID,1000.22,VALID,0,VALID,91.7767,VALID,0,VALID,24.2653,VALID,82,VALID,0,
2009-11-30, 01:17:04,VALID,1000.22,VALID,0,VALID,91.8148,VALID,0,VALID,24.2653,VALID,82,VALID,0,
2009-11-30, 01:18:04,VALID,1000.23,VALID,0,VALID,91.8377,VALID,0,VALID,24.2653,VALID,82,VALID,0,
2009-11-30, 01:19:04,VALID,1000.19,VALID,0,VALID,91.853,VALID,0,VALID,24.2653,VALID,82,VALID,0,
2009-11-30, 01:20:04,VALID,1000.17,VALID,0,VALID,91.8454,VALID,0,VALID,24.2653,VALID,82,VALID,0,
2009-11-30, 01:21:04,VALID,1000.19,VALID,0,VALID,91.8759,VALID,0,VALID,24.2653,VALID,80,VALID,0,
2009-11-30, 01:22:04,VALID,1000.15,VALID,0,VALID,91.8683,VALID,0,VALID,24.2653,VALID,42,VALID,0,
2009-11-30, 01:23:04,VALID,1000.13,VALID,0,VALID,91.8606,VALID,0,VALID,24.2458,VALID,42,VALID,0.355859,
2009-11-30, 01:24:04,VALID,1000.14,VALID,0,VALID,91.8301,VALID,0,VALID,24.2458,VALID,42,VALID,0.819141,
2009-11-30, 01:25:04,VALID,1000.16,VALID,0,VALID,91.8225,VALID,0,VALID,24.2458,VALID,37,VALID,0.910937,
2009-11-30, 01:26:04,VALID,1000.22,VALID,0,VALID,91.8072,VALID,0.112286,VALID,24.2866,VALID,30,VALID,0.860547,
2009-11-30, 01:27:04,VALID,1000.25,VALID,0,VALID,91.8759,VALID,0,VALID,24.2653,VALID,21,VALID,0.888281,
2009-11-30, 01:28:04,VALID,1000.29,VALID,0,VALID,91.8911,VALID,0.112286,VALID,24.2653,VALID,18,VALID,1.01914,
2009-11-30, 01:29:04,VALID,1000.32,VALID,0,VALID,91.9751,VALID,0,VALID,24.2653,VALID,24,VALID,0.835156,
2009-11-30, 01:30:04,VALID,1000.35,VALID,0,VALID,92.1124,VALID,0.112286,VALID,24.3043,VALID,15,VALID,1.01211,
2009-11-30, 01:31:04,VALID,1000.36,VALID,0,VALID,92.059,VALID,0,VALID,24.308,VALID,18,VALID,1.22031,
2009-11-30, 01:32:04,VALID,1000.36,VALID,0,VALID,92.0361,VALID,0,VALID,24.2866,VALID,24,VALID,1.16523,
2009-11-30, 01:33:04,VALID,1000.35,VALID,0,VALID,92.0895,VALID,0,VALID,24.3062,VALID,23,VALID,0.821484,
2009-11-30, 01:34:04,VALID,1000.31,VALID,0,VALID,92.1048,VALID,0,VALID,24.3062,VALID,27,VALID,0.685938,
2009-11-30, 01:35:04,VALID,1000.3,VALID,0,VALID,92.1353,VALID,0,VALID,24.347,VALID,32,VALID,0.532422,
2009-11-30, 01:36:04,VALID,1000.33,VALID,0,VALID,92.0666,VALID,0,VALID,24.3062,VALID,31,VALID,0.649609,
2009-11-30, 01:37:04,VALID,1000.39,VALID,0,VALID,92.059,VALID,0,VALID,24.3062,VALID,355,VALID,0.743359,
2009-11-30, 01:38:04,VALID,1000.35,VALID,0,VALID,91.9445,VALID,0,VALID,24.3062,VALID,344,VALID,0.65625,
2009-11-30, 01:39:04,VALID,1000.37,VALID,0,VALID,91.9674,VALID,0,VALID,24.3257,VALID,321,VALID,0.683984,
2009-11-30, 01:40:04,VALID,1000.33,VALID,0,VALID,91.9598,VALID,0,VALID,24.3452,VALID,284,VALID,0.517578,
2009-11-30, 01:41:04,VALID,1000.33,VALID,0,VALID,92.0132,VALID,0,VALID,24.3842,VALID,261,VALID,1.06602,
2009-11-30, 01:42:04,VALID,1000.29,VALID,0,VALID,92.0056,VALID,0,VALID,24.3842,VALID,251,VALID,0.816797,
2009-11-30, 01:43:04,VALID,1000.34,VALID,0,VALID,92.0285,VALID,0,VALID,24.4056,VALID,245,VALID,0.691797,
2009-11-30, 01:44:04,VALID,1000.3,VALID,0,VALID,91.9598,VALID,0,VALID,24.3647,VALID,211,VALID,1.03984,
2009-11-30, 01:45:04,VALID,1000.36,VALID,0,VALID,91.2655,VALID,0,VALID,24.3666,VALID,298,VALID,3.02969,
2009-11-30, 01:46:04,VALID,1000.38,VALID,0,VALID,90.4415,VALID,0,VALID,24.4214,VALID,295,VALID,2.6418,
2009-11-30, 01:47:04,VALID,1000.39,VALID,0,VALID,89.9456,VALID,0,VALID,24.4623,VALID,278,VALID,2.20977,
2009-11-30, 01:48:04,VALID,1000.43,VALID,0,VALID,89.9609,VALID,0,VALID,24.4818,VALID,227,VALID,1.20586,
2009-11-30, 01:49:04,VALID,1000.38,VALID,0,VALID,89.854,VALID,0.112286,VALID,24.4409,VALID,209,VALID,1.99883,
2009-11-30, 01:50:04,VALID,1000.41,VALID,0,VALID,89.114,VALID,0,VALID,24.4214,VALID,234,VALID,3.11484,
2009-11-30, 01:51:04,VALID,1000.4,VALID,0.5,VALID,89.1521,VALID,0,VALID,24.4214,VALID,228,VALID,1.66523,
2009-11-30, 01:52:04,VALID,1000.39,VALID,0,VALID,88.5341,VALID,0,VALID,24.3629,VALID,222,VALID,3.2,
2009-11-30, 01:53:04,VALID,1000.39,VALID,0,VALID,88.5112,VALID,0,VALID,24.3238,VALID,214,VALID,2.88594,
2009-11-30, 01:54:04,VALID,1000.35,VALID,0,VALID,88.1145,VALID,0,VALID,24.3257,VALID,226,VALID,3.13477,
2009-11-30, 01:55:04,VALID,1000.41,VALID,0,VALID,88.5494,VALID,0,VALID,24.2653,VALID,214,VALID,1.98516,
2009-11-30, 01:56:04,VALID,1000.34,VALID,0,VALID,88.2442,VALID,0,VALID,24.2671,VALID,202,VALID,2.10469,
2009-11-30, 01:57:04,VALID,1000.34,VALID,0,VALID,87.9924,VALID,0,VALID,24.2067,VALID,213,VALID,2.57148,
2009-11-30, 01:58:04,VALID,1000.32,VALID,0,VALID,88.4578,VALID,0,VALID,24.1872,VALID,205,VALID,1.51719,
2009-11-30, 01:59:04,VALID,1000.32,VALID,0,VALID,88.4273,VALID,0,VALID,24.1872,VALID,204,VALID,1.21367,
2009-11-30, 02:00:04,VALID,1000.31,VALID,0,VALID,88.8317,VALID,0,VALID,24.1677,VALID,197,VALID,1.12695,
2009-11-30, 02:01:04,VALID,1000.31,VALID,0,VALID,88.6562,VALID,0,VALID,24.1677,VALID,184,VALID,1.2332,
2009-11-30, 02:02:04,VALID,1000.33,VALID,0,VALID,88.4578,VALID,0,VALID,24.1696,VALID,224,VALID,1.37539,
2009-11-30, 02:03:04,VALID,1000.26,VALID,0,VALID,88.7401,VALID,0,VALID,24.1287,VALID,230,VALID,0.577344,
2009-11-30, 02:04:04,VALID,1000.26,VALID,0,VALID,89.0453,VALID,0.112286,VALID,24.1092,VALID,190,VALID,0.671484,
2009-11-30, 02:05:04,VALID,1000.28,VALID,0,VALID,89.1826,VALID,0,VALID,24.1092,VALID,220,VALID,1.04023,
2009-11-30, 02:06:04,VALID,1000.24,VALID,0,VALID,88.8774,VALID,0,VALID,24.1305,VALID,180,VALID,1.16328,
2009-11-30, 02:07:04,VALID,1000.17,VALID,0,VALID,88.5723,VALID,0,VALID,24.1092,VALID,178,VALID,1.65078,
2009-11-30, 02:08:04,VALID,1000.17,VALID,0,VALID,88.3663,VALID,0.112286,VALID,24.15,VALID,195,VALID,1.38516,
2009-11-30, 02:09:04,VALID,1000.13,VALID,0,VALID,88.5723,VALID,0,VALID,24.1696,VALID,176,VALID,1.35078,
2009-11-30, 02:10:04,VALID,1000.11,VALID,0,VALID,87.3134,VALID,0,VALID,24.1696,VALID,173,VALID,2.19648,
2009-11-30, 02:11:04,VALID,1000.11,VALID,0,VALID,88,VALID,0,VALID,24.2086,VALID,219,VALID,1.22695,
2009-11-30, 02:12:04,VALID,1000.03,VALID,0,VALID,87.7177,VALID,0,VALID,24.2281,VALID,199,VALID,1.23125,
2009-11-30, 02:13:04,VALID,1000.05,VALID,0,VALID,87.8627,VALID,0,VALID,24.2281,VALID,201,VALID,1.7625,
2009-11-30, 02:14:04,VALID,1000.03,VALID,0,VALID,88.3586,VALID,0,VALID,24.2671,VALID,197,VALID,1.31406,
2009-11-30, 02:15:04,VALID,1000.03,VALID,0,VALID,88.3129,VALID,0,VALID,24.2671,VALID,212,VALID,1.35195,
2009-11-30, 02:16:04,VALID,1000.06,VALID,0,VALID,87.672,VALID,0,VALID,24.2263,VALID,208,VALID,0.995703,
2009-11-30, 02:17:04,VALID,1000.05,VALID,0,VALID,87.9695,VALID,0,VALID,24.2458,VALID,238,VALID,0.583984,
2009-11-30, 02:18:04,VALID,1000.06,VALID,0,VALID,88.1526,VALID,0,VALID,24.2281,VALID,237,VALID,0.416016,
2009-11-30, 02:19:04,VALID,1000.05,VALID,0,VALID,88.3815,VALID,0,VALID,24.1891,VALID,237,VALID,0.675,
2009-11-30, 02:20:04,VALID,1000.03,VALID,0,VALID,88.3205,VALID,0,VALID,24.15,VALID,253,VALID,0.319531,
2009-11-30, 02:21:04,VALID,1000.03,VALID,0,VALID,88.6562,VALID,0,VALID,24.15,VALID,253,VALID,0.263672,
2009-11-30, 02:22:04,VALID,1000.04,VALID,0,VALID,88.8317,VALID,0,VALID,24.0701,VALID,253,VALID,0.319922,
2009-11-30, 02:23:04,VALID,1000.01,VALID,0,VALID,88.9003,VALID,0,VALID,24.0525,INVALID,360,VALID,0,
2009-11-30, 02:24:04,VALID,1000.03,VALID,0,VALID,88.9995,VALID,0,VALID,24.0134,VALID,253,VALID,0,
2009-11-30, 02:25:04,VALID,1000.03,VALID,0,VALID,89.3886,VALID,0,VALID,23.9939,VALID,253,VALID,0,
2009-11-30, 02:26:04,VALID,1000.08,VALID,0,VALID,89.5489,VALID,0,VALID,23.9744,VALID,253,VALID,0,
2009-11-30, 02:27:04,VALID,1000.11,VALID,0,VALID,89.7396,VALID,0,VALID,23.9354,INVALID,360,VALID,0,
2009-11-30, 02:28:04,VALID,1000.1,VALID,0,VALID,89.9151,VALID,0,VALID,23.9159,VALID,251,VALID,0,
2009-11-30, 02:29:04,VALID,1000.12,VALID,0,VALID,90.2279,VALID,0,VALID,23.8963,VALID,230,VALID,0,
2009-11-30, 02:30:04,VALID,1000.13,VALID,0,VALID,90.4568,VALID,0,VALID,23.8768,VALID,230,VALID,0,
2009-11-30, 02:31:04,VALID,1000.13,VALID,0,VALID,90.4186,VALID,0,VALID,23.8768,VALID,230,VALID,0,
2009-11-30, 02:32:04,VALID,1000.12,VALID,0,VALID,90.4263,VALID,0.112286,VALID,23.8165,VALID,230,VALID,0,
2009-11-30, 02:33:04,VALID,1000.13,VALID,0,VALID,90.4949,VALID,0,VALID,23.8183,VALID,230,VALID,0.220313,
2009-11-30, 02:34:04,VALID,1000.12,VALID,0,VALID,90.6399,VALID,0,VALID,23.8183,VALID,230,VALID,0.307813,
2009-11-30, 02:35:04,VALID,1000.11,VALID,0,VALID,90.7543,VALID,0,VALID,23.7988,VALID,230,VALID,0,
2009-11-30, 02:36:04,VALID,1000.11,VALID,0,VALID,90.6933,VALID,0.112286,VALID,23.7579,VALID,230,VALID,0.021875,
2009-11-30, 02:37:04,VALID,1000.08,VALID,0,VALID,90.7467,VALID,0,VALID,23.7793,VALID,213,VALID,0,
2009-11-30, 02:38:04,VALID,1000.12,VALID,0,VALID,90.678,VALID,0,VALID,23.7597,VALID,208,VALID,0,
2009-11-30, 02:39:04,VALID,1000.12,VALID,0,VALID,90.5254,VALID,0,VALID,23.7579,VALID,208,VALID,0,
2009-11-30, 02:40:04,VALID,1000.14,VALID,0,VALID,90.5178,VALID,0,VALID,23.7775,VALID,208,VALID,0,
2009-11-30, 02:41:04,VALID,1000.11,VALID,0,VALID,90.5941,VALID,0.112286,VALID,23.7988,VALID,208,VALID,0.123828,
2009-11-30, 02:42:04,VALID,1000.09,VALID,0,VALID,90.3652,VALID,0,VALID,23.797,VALID,178,VALID,0.675781,
2009-11-30, 02:43:04,VALID,1000.06,VALID,0,VALID,89.9456,VALID,0,VALID,23.8165,VALID,146,VALID,1.14766,
2009-11-30, 02:44:04,VALID,1000.09,VALID,0,VALID,90.06,VALID,0,VALID,23.8963,VALID,131,VALID,1.21641,
2009-11-30, 02:45:04,VALID,1000.09,VALID,0,VALID,90.1592,VALID,0,VALID,23.914,VALID,143,VALID,0.425781,
2009-11-30, 02:46:04,VALID,1000.11,VALID,0,VALID,90.3271,VALID,0,VALID,23.9354,VALID,143,VALID,0,
2009-11-30, 02:47:04,VALID,1000.14,VALID,0,VALID,90.4873,VALID,0,VALID,23.9159,VALID,110,VALID,0,
2009-11-30, 02:48:04,VALID,1000.17,VALID,0,VALID,90.5331,VALID,0,VALID,23.8963,VALID,110,VALID,0,
2009-11-30, 02:49:04,VALID,1000.17,VALID,0,VALID,90.6017,VALID,0,VALID,23.875,VALID,110,VALID,0,
2009-11-30, 02:50:04,VALID,1000.16,VALID,0,VALID,90.7238,VALID,0,VALID,23.8963,VALID,110,VALID,0,
2009-11-30, 02:51:04,VALID,1000.12,VALID,0,VALID,90.7543,VALID,0,VALID,23.8768,VALID,110,VALID,0,
2009-11-30, 02:52:04,VALID,1000.12,VALID,0,VALID,90.762,VALID,0,VALID,23.8573,VALID,99,VALID,0,
2009-11-30, 02:53:04,VALID,1000.11,VALID,0,VALID,90.7314,VALID,0,VALID,23.7988,VALID,42,VALID,0,
2009-11-30, 02:54:04,VALID,1000.1,VALID,0,VALID,90.6857,VALID,0,VALID,23.7384,VALID,42,VALID,0,
2009-11-30, 02:55:04,VALID,1000.11,VALID,0,VALID,90.8459,VALID,0,VALID,23.7012,VALID,42,VALID,0,
2009-11-30, 02:56:04,VALID,1000.08,VALID,0,VALID,90.9603,VALID,0,VALID,23.6604,VALID,42,VALID,1.02383,
2009-11-30, 02:57:04,VALID,1000.06,VALID,0,VALID,91.1892,VALID,0.112286,VALID,23.6409,VALID,42,VALID,1.2207,
2009-11-30, 02:58:04,VALID,1000.06,VALID,0,VALID,91.296,VALID,0,VALID,23.6409,VALID,42,VALID,1.34531,
2009-11-30, 02:59:04,VALID,1000.05,VALID,0,VALID,91.2579,VALID,0,VALID,23.6817,VALID,40,VALID,1.25937,
2009-11-30, 03:00:04,VALID,1000.01,VALID,0,VALID,91.2121,VALID,0,VALID,23.6604,VALID,38,VALID,1.27539,
2009-11-30, 03:01:04,VALID,1000.02,VALID,0,VALID,91.1816,VALID,0,VALID,23.6409,VALID,36,VALID,0.865625,
2009-11-30, 03:02:04,VALID,1000,VALID,0,VALID,91.174,VALID,0,VALID,23.6409,VALID,35,VALID,0.525781,
2009-11-30, 03:03:04,VALID,999.99,VALID,0,VALID,91.1663,VALID,0,VALID,23.6427,VALID,35,VALID,0,
2009-11-30, 03:04:04,VALID,1000,VALID,0,VALID,91.2655,VALID,0,VALID,23.6232,VALID,35,VALID,0,
2009-11-30, 03:05:04,VALID,1000,VALID,0,VALID,91.3189,VALID,0,VALID,23.6232,VALID,35,VALID,0,
2009-11-30, 03:06:04,VALID,1000.01,VALID,0,VALID,91.3723,VALID,0,VALID,23.5823,VALID,35,VALID,0,
2009-11-30, 03:07:04,VALID,1000.01,VALID,0,VALID,91.6012,VALID,0,VALID,23.5841,VALID,31,VALID,0.448438,
2009-11-30, 03:08:04,VALID,1000.04,VALID,0,VALID,91.6775,VALID,0,VALID,23.6036,VALID,31,VALID,0,
2009-11-30, 03:09:04,VALID,1000.06,VALID,0,VALID,91.792,VALID,0,VALID,23.5823,VALID,31,VALID,0,
2009-11-30, 03:10:04,VALID,1000.08,VALID,0,VALID,91.8683,VALID,0,VALID,23.5841,VALID,31,VALID,0,
2009-11-30, 03:11:04,VALID,1000.06,VALID,0,VALID,91.9674,VALID,0,VALID,23.5841,VALID,31,VALID,0,
2009-11-30, 03:12:04,VALID,1000.06,VALID,0,VALID,92.059,VALID,0,VALID,23.5841,VALID,35,VALID,0,
2009-11-30, 03:13:04,VALID,1000.08,VALID,0,VALID,92.1811,VALID,0,VALID,23.5823,VALID,36,VALID,0,
2009-11-30, 03:14:04,VALID,1000.07,VALID,0,VALID,92.1658,VALID,0.112286,VALID,23.5628,VALID,36,VALID,0,
2009-11-30, 03:15:04,VALID,1000.09,VALID,0,VALID,92.3031,VALID,0,VALID,23.6036,VALID,42,VALID,0,
2009-11-30, 03:16:04,VALID,1000.08,VALID,0,VALID,92.2955,VALID,0.112286,VALID,23.5823,VALID,47,VALID,0,
2009-11-30, 03:17:04,VALID,1000.13,VALID,0,VALID,92.2879,VALID,0,VALID,23.5823,VALID,47,VALID,0,
2009-11-30, 03:18:04,VALID,1000.16,VALID,0,VALID,92.2421,VALID,0,VALID,23.5841,VALID,47,VALID,0,
2009-11-30, 03:19:04,VALID,1000.21,VALID,0,VALID,92.2268,VALID,0,VALID,23.5628,VALID,47,VALID,0,
2009-11-30, 03:20:04,VALID,1000.23,VALID,0,VALID,92.2497,VALID,0,VALID,23.5646,VALID,47,VALID,0,
2009-11-30, 03:21:04,VALID,1000.19,VALID,0,VALID,92.2803,VALID,0,VALID,23.5646,VALID,47,VALID,0,
2009-11-30, 03:22:04,VALID,1000.18,VALID,0,VALID,92.3413,VALID,0,VALID,23.5433,VALID,47,VALID,0,
2009-11-30, 03:23:04,VALID,1000.16,VALID,0,VALID,92.4405,VALID,0.112286,VALID,23.5433,VALID,47,VALID,0,
2009-11-30, 03:24:04,VALID,1000.13,VALID,0,VALID,92.4634,VALID,0,VALID,23.5433,VALID,47,VALID,0,
2009-11-30, 03:25:04,VALID,1000.15,VALID,0,VALID,92.4786,VALID,0.112286,VALID,23.5628,VALID,47,VALID,0,
2009-11-30, 03:26:04,VALID,1000.14,VALID,0,VALID,92.5702,VALID,0,VALID,23.5823,VALID,73,VALID,0,
2009-11-30, 03:27:04,VALID,1000.15,VALID,0,VALID,92.5244,VALID,0,VALID,23.5823,VALID,73,VALID,0,
2009-11-30, 03:28:04,VALID,1000.21,VALID,0,VALID,92.4328,VALID,0,VALID,23.5628,VALID,73,VALID,0,
2009-11-30, 03:29:04,VALID,1000.24,VALID,0,VALID,92.326,VALID,0,VALID,23.5823,VALID,65,VALID,0,
2009-11-30, 03:30:04,VALID,1000.3,VALID,0,VALID,92.4405,VALID,0,VALID,23.6036,VALID,26,VALID,0,
2009-11-30, 03:31:04,VALID,1000.3,VALID,0,VALID,92.4023,VALID,0,VALID,23.5841,VALID,13,VALID,0,
2009-11-30, 03:32:04,VALID,1000.34,VALID,0,VALID,92.4023,VALID,0,VALID,23.5841,VALID,1,VALID,0,
2009-11-30, 03:33:04,VALID,1000.39,VALID,0,VALID,92.3794,VALID,0,VALID,23.5628,VALID,1,VALID,0,
2009-11-30, 03:34:04,VALID,1000.39,VALID,0,VALID,92.4634,VALID,0.112286,VALID,23.6036,VALID,1,VALID,0,
2009-11-30, 03:35:04,VALID,1000.37,VALID,0,VALID,92.5397,VALID,0,VALID,23.6019,VALID,1,VALID,0,
2009-11-30, 03:36:04,VALID,1000.41,VALID,0,VALID,92.616,VALID,0,VALID,23.6019,VALID,2,VALID,0.221484,
2009-11-30, 03:37:04,VALID,1000.43,VALID,0,VALID,92.6694,VALID,0,VALID,23.6427,VALID,2,VALID,0.68125,
2009-11-30, 03:38:04,VALID,1000.43,VALID,0,VALID,92.7075,VALID,0,VALID,23.6409,VALID,1,VALID,0.808984,
2009-11-30, 03:39:04,VALID,1000.45,VALID,0,VALID,92.7685,VALID,0,VALID,23.6604,VALID,360,VALID,0.353516,
2009-11-30, 03:40:04,VALID,1000.43,VALID,0,VALID,92.7685,VALID,0,VALID,23.6799,VALID,360,VALID,0.4,
2009-11-30, 03:41:04,VALID,1000.45,VALID,0,VALID,92.8067,VALID,0,VALID,23.6799,VALID,360,VALID,0,
2009-11-30, 03:42:04,VALID,1000.45,VALID,0,VALID,92.7762,VALID,0.112286,VALID,23.6799,VALID,360,VALID,0,
2009-11-30, 03:43:04,VALID,1000.45,VALID,0,VALID,92.7609,VALID,0,VALID,23.6994,VALID,360,VALID,0,
2009-11-30, 03:44:04,VALID,1000.49,VALID,0,VALID,92.738,VALID,0,VALID,23.6604,VALID,360,VALID,0,
2009-11-30, 03:45:04,VALID,1000.51,VALID,0,VALID,92.7457,VALID,0,VALID,23.6799,VALID,360,VALID,0,
2009-11-30, 03:46:04,VALID,1000.6,VALID,0,VALID,92.738,VALID,0,VALID,23.703,VALID,358,VALID,0.102734,
2009-11-30, 03:47:04,VALID,1000.74,VALID,0,VALID,92.7762,VALID,0,VALID,23.7012,VALID,328,VALID,1.6582,
2009-11-30, 03:48:04,VALID,1000.86,VALID,0,VALID,92.7533,VALID,0,VALID,23.7207,VALID,327,VALID,1.90625,
2009-11-30, 03:49:04,VALID,1000.92,VALID,0,VALID,92.6999,VALID,0,VALID,23.7207,VALID,320,VALID,1.25742,
2009-11-30, 03:50:04,VALID,1000.95,VALID,0,VALID,92.4939,VALID,0,VALID,23.6622,VALID,298,VALID,1.64844,
2009-11-30, 03:51:04,VALID,1000.94,VALID,0,VALID,92.3108,VALID,0,VALID,23.6622,VALID,314,VALID,1.94648,